Vorticity
5 5 7 10 9 12 12 10 10 9 7 6 5 5 4 5 5 6 8 9 8 7 8 8 9 10 9 9 9 10 10 9 10 6 8 10 11 12 10 10 9 7 11
8 7 10 10 12 11 10 9 9 9 6 5 6 5 5 5 5 8 8 6 7 8 8 9 9 8 9 9 9 9 9 10 12 12 6 10 11 11 11 7 10 11 7
7 11 11 12 11 10 10 10 9 8 6 6 5 5 4 5 7 7 5 7 7 8 9 9 9 8 8 9 10 11 12 11 11 10 9 11 11 10 9 10 8 10 8
14 13 12 10 10 11 10 10 9 7 6 6 6 5 5 7 8 5 4 5 7 9 10 10 8 8 8 9 10 11 11 12 11 12 11 11 10 11 13 15 8 7 6
13 11 9 10 11 9 9 8 7 8 7 6 5 4 6 8 5 5 6 7 8 9 11 11 10 10 9 10 10 10 10 10 11 11 12 12 11 11 10 14 15 16 12
7 10 11 10 9 9 8 8 8 8 7 6 4 5 8 5 5 5 6 7 10 11 10 8 8 8 8 8 8 9 9 9 9 8 9 9 10 9 9 9 9 13 12
12 9 11 11 10 9 9 8 8 7 6 5 5 7 4 4 5 5 5 8 11 11 10 9 7 7 7 7 7 8 8 8 8 7 7 6 6 7 7 7 7 8 10
10 12 8 7 8 8 9 8 7 7 6 6 7 4 4 6 6 6 7 8 11 10 9 7 7 7 7 7 7 7 7 7 7 7 7 6 7 6 6 6 6 6 8
7 4 9 7 5 5 5 6 7 7 7 7 5 5 6 7 6 7 6 6 9 8 6 5 4 3 5 8 9 8 8 7 7 7 7 6 7 6 7 6 6 6 6
9 4 -0 -0 1 6 8 9 8 7 8 6 6 5 6 6 6 6 5 5 8 9 8 7 5 5 4 4 5 6 7 7 7 7 7 7 7 7 6 6 7 7 6
7 -2 -6 -3 0 14 19 12 10 8 7 6 6 7 8 7 6 5 4 4 6 7 6 5 4 3 4 5 5 7 7 7 8 7 6 6 6 7 7 8 7 7 6
1 -6 -3 3 -2 16 13 13 9 7 4 4 7 8 8 7 5 5 4 4 6 6 4 2 1 3 3 3 5 7 8 9 9 9 8 7 6 6 6 6 7 8 8
-2 4 5 -0 14 15 8 13 9 8 11 13 13 12 11 8 6 6 5 6 7 6 3 1 1 3 2 3 9 11 9 10 10 10 9 9 9 9 10 9 8 8 8
1 4 16 19 15 7 5 7 4 2 5 10 14 13 11 7 7 6 5 6 6 4 0 1 5 5 4 7 13 12 11 10 9 9 9 10 11 12 12 12 10 9 9
20 16 7 10 12 16 16 14 12 11 9 8 10 15 12 9 7 6 6 4 0 2 6 5 4 5 6 13 12 10 9 8 8 10 12 12 12 12 12 11 10 10 9
10 17 8 14 13 9 11 18 19 17 15 9 4 2 2 2 1 1 0 1 2 1 1 6 6 3 8 13 12 11 11 11 12 13 13 12 12 11 10 9 8 7 7
13 16 9 6 6 7 7 5 5 4 1 -1 -1 -1 -3 -3 -0 5 9 12 15 12 7 6 7 10 15 16 14 14 12 10 9 8 7 8 7 9 9 8 8 8 9
3 2 5 8 8 8 5 4 5 5 8 9 10 9 9 8 9 11 13 11 11 14 18 19 16 16 15 14 12 10 9 9 8 9 11 12 12 12 12 11 12 12 11
11 3 3 11 12 9 3 0 2 6 12 13 14 14 13 11 11 12 13 12 11 10 8 10 10 10 11 10 11 12 13 12 9 11 11 11 11 12 9 9 9 8 8
5 7 12 12 16 14 16 18 16 11 10 8 6 8 10 12 13 14 13 11 11 10 10 11 10 9 8 8 14 16 16 15 13 12 13 12 12 12 11 9 9 8 10
13 15 16 15 16 13 10 9 9 9 9 10 10 10 9 11 11 12 12 13 13 13 14 14 13 12 13 12 12 10 9 10 10 9 10 9 9 8 8 9 9 10 11
14 14 12 8 8 9 9 9 10 9 10 10 11 14 15 14 13 13 12 10 12 14 18 19 18 19 22 19 14 11 8 8 8 7 6 5 6 8 9 10 10 10 10
10 9 6 5 3 4 4 6 8 11 12 15 18 18 17 16 14 10 11 13 17 16 13 13 12 14 15 15 23 22 17 14 12 12 10 9 10 14 17 18 17 15 16
7 6 4 4 6 8 5 9 15 19 17 17 14 13 13 14 13 12 14 13 8 9 10 10 10 10 9 11 12 10 11 12 11 10 11 13 14 10 10 12 15 13 13
2 3 6 8 6 6 6 13 13 14 14 14 15 16 16 15 12 10 10 7 -0 8 17 12 12 12 12 13 12 12 14 14 14 13 12 12 13 16 17 16 16 14 14
1 1 2 6 8 9 11 16 14 16 15 13 14 10 5 5 8 10 11 13 13 16 12 16 11 9 8 8 10 12 12 12 15 16 15 13 11 11 13 12 13 13 12
Height
3147 3146 3145 3144 3144 3142 3141 3140 3140 3140 3140 3139 3139 3138 3137 3136 3134 3131 3129 3127 3124 3121 3118 3115 3112 3109 3106 3104 3102 3100 3096 3092 3092 3090 3085 3083 3081 3079 3076 3075 3074 3073 3072
3142 3141 3140 3140 3139 3138 3137 3137 3137 3137 3137 3137 3136 3135 3134 3133 3131 3128 3126 3124 3122 3118 3116 3113 3109 3106 3103 3100 3098 3095 3092 3088 3087 3086 3083 3080 3078 3075 3072 3071 3071 3069 3068
3137 3137 3136 3136 3135 3135 3135 3134 3134 3134 3135 3134 3134 3133 3132 3130 3128 3126 3122 3120 3117 3115 3112 3109 3106 3103 3100 3097 3094 3091 3088 3085 3081 3080 3079 3076 3074 3072 3069 3067 3066 3064 3063
3134 3134 3133 3133 3132 3132 3132 3132 3132 3132 3131 3131 3130 3129 3128 3126 3124 3122 3120 3117 3114 3111 3108 3105 3103 3100 3096 3093 3090 3087 3084 3082 3078 3074 3072 3071 3069 3067 3068 3064 3062 3060 3058
3131 3130 3130 3129 3129 3129 3129 3129 3129 3129 3128 3128 3127 3126 3125 3123 3120 3118 3115 3112 3109 3106 3104 3101 3099 3096 3093 3090 3086 3083 3080 3078 3075 3072 3070 3067 3063 3060 3059 3060 3060 3057 3054
3128 3127 3126 3126 3126 3126 3126 3126 3126 3125 3124 3124 3123 3122 3120 3119 3116 3114 3112 3108 3105 3102 3100 3098 3095 3092 3089 3086 3083 3080 3077 3075 3072 3069 3067 3065 3063 3060 3056 3054 3053 3052 3051
3124 3124 3123 3123 3123 3123 3122 3122 3122 3121 3120 3119 3119 3117 3116 3114 3112 3110 3107 3104 3101 3098 3096 3094 3092 3088 3085 3082 3079 3076 3074 3071 3069 3066 3063 3061 3058 3056 3054 3051 3048 3047 3046
3119 3119 3119 3120 3120 3120 3119 3119 3118 3117 3117 3116 3114 3113 3111 3110 3108 3105 3103 3100 3097 3094 3092 3090 3087 3084 3081 3077 3075 3071 3068 3066 3064 3061 3059 3056 3054 3052 3049 3046 3044 3043 3041
3116 3117 3117 3117 3117 3116 3115 3114 3113 3112 3111 3109 3108 3107 3105 3104 3102 3100 3097 3095 3092 3089 3087 3085 3082 3080 3077 3074 3071 3068 3064 3061 3058 3056 3054 3052 3049 3047 3044 3042 3039 3036 3034
3114 3114 3114 3114 3114 3113 3111 3109 3108 3107 3106 3104 3103 3101 3099 3097 3096 3093 3091 3089 3086 3084 3081 3079 3076 3073 3071 3068 3065 3063 3060 3057 3054 3050 3048 3045 3042 3040 3038 3035 3033 3030 3027
3111 3111 3111 3110 3108 3107 3105 3103 3102 3101 3100 3098 3096 3095 3093 3091 3089 3086 3084 3082 3079 3076 3074 3071 3069 3066 3064 3061 3059 3056 3054 3051 3048 3045 3041 3038 3035 3032 3030 3028 3025 3023 3021
3108 3107 3106 3104 3103 3101 3099 3097 3096 3095 3093 3091 3089 3088 3086 3084 3082 3079 3077 3074 3072 3069 3067 3064 3062 3059 3056 3053 3050 3048 3045 3043 3040 3038 3035 3032 3029 3025 3022 3020 3017 3016 3013
3103 3101 3100 3098 3096 3095 3094 3092 3090 3088 3087 3084 3082 3080 3079 3076 3074 3071 3068 3066 3063 3061 3058 3055 3053 3050 3047 3044 3041 3039 3036 3033 3030 3028 3026 3023 3021 3019 3016 3013 3010 3008 3006
3096 3094 3092 3089 3088 3087 3086 3084 3083 3081 3079 3077 3075 3073 3070 3068 3066 3063 3060 3058 3055 3052 3049 3046 3043 3040 3037 3034 3030 3027 3025 3022 3020 3017 3014 3013 3011 3009 3007 3005 3002 3000 2998
3088 3086 3084 3082 3081 3080 3079 3077 3076 3074 3071 3068 3066 3064 3061 3059 3057 3054 3051 3047 3045 3041 3037 3034 3032 3028 3025 3023 3019 3016 3014 3011 3009 3007 3004 3001 3000 2998 2997 2996 2994 2992 2990
3082 3081 3079 3077 3075 3073 3071 3069 3067 3064 3061 3059 3056 3054 3052 3049 3046 3043 3040 3036 3032 3029 3026 3023 3019 3017 3014 3012 3009 3005 3002 3000 2997 2996 2994 2991 2989 2988 2987 2985 2984 2982 2981
3076 3074 3072 3070 3068 3066 3064 3062 3060 3057 3054 3051 3049 3046 3043 3040 3036 3032 3028 3023 3019 3016 3013 3010 3007 3004 3001 2999 2996 2993 2989 2987 2986 2984 2983 2981 2980 2978 2976 2975 2973 2972 2970
3069 3068 3065 3063 3060 3057 3055 3053 3050 3048 3045 3042 3038 3033 3030 3026 3022 3018 3014 3011 3007 3003 2999 2996 2994 2990 2989 2986 2984 2982 2978 2975 2974 2973 2971 2969 2968 2967 2964 2962 2961 2961 2961
3061 3059 3057 3055 3052 3049 3046 3043 3041 3037 3034 3030 3026 3023 3018 3013 3009 3005 3001 2998 2993 2989 2985 2983 2979 2976 2974 2974 2971 2968 2965 2964 2962 2961 2960 2958 2955 2955 2953 2949 2948 2948 2950
3053 3050 3047 3045 3041 3039 3036 3033 3030 3026 3022 3018 3014 3010 3005 3000 2996 2991 2987 2983 2979 2975 2972 2969 2967 2964 2961 2961 2959 2956 2951 2949 2949 2949 2948 2947 2944 2942 2941 2939 2937 2935 2938
3044 3040 3037 3035 3031 3028 3025 3021 3017 3014 3010 3007 3002 2996 2991 2987 2983 2979 2974 2971 2967 2963 2960 2956 2953 2951 2950 2947 2945 2943 2939 2936 2935 2934 2934 2934 2932 2930 2928 2927 2925 2924 2924
3035 3031 3028 3026 3023 3019 3015 3011 3006 3001 2997 2992 2986 2982 2977 2972 2968 2964 2961 2958 2954 2949 2945 2941 2938 2936 2934 2933 2930 2929 2927 2924 2921 2920 2919 2919 2918 2917 2916 2914 2912 2911 2908
3029 3025 3021 3018 3015 3011 3005 2998 2994 2988 2982 2977 2972 2968 2964 2960 2955 2951 2948 2944 2941 2936 2933 2929 2925 2922 2921 2919 2918 2916 2914 2912 2908 2907 2905 2904 2902 2901 2900 2900 2899 2897 2895
3020 3016 3012 3008 3003 2998 2993 2988 2982 2976 2969 2964 2960 2955 2951 2948 2944 2940 2936 2932 2929 2925 2921 2917 2913 2911 2909 2907 2906 2903 2901 2899 2897 2895 2893 2891 2890 2888 2887 2886 2886 2884 2882
3012 3008 3003 2998 2992 2987 2981 2975 2968 2963 2956 2952 2948 2944 2939 2936 2931 2928 2925 2920 2918 2914 2908 2904 2901 2898 2895 2895 2893 2890 2887 2886 2884 2882 2880 2879 2878 2877 2875 2874 2873 2872 2871
3002 2996 2991 2985 2980 2975 2968 2962 2958 2952 2945 2939 2935 2932 2927 2923 2920 2915 2910 2909 2905 2901 2897 2893 2890 2887 2884 2882 2879 2877 2875 2873 2871 2868 2867 2866 2865 2864 2863 2862 2861 2860 2859